Weather History for Tampa Macdill AFB, FL

Change the Weather History Date:

Friday, August 2, 2013

  Actual Average Record
Temperature  
Mean Temperature 84 °F -  
Max Temperature 93 °F 87 °F 95 °F (2014)
Min Temperature 74 °F 73 °F 73 °F (1998)
Cooling Degree Days 18    
Growing Degree Days 34 (Base 50)    
Moisture  
Dew Point 77 °F    
Average Humidity 81    
Maximum Humidity 100    
Minimum Humidity 59    
Precipitation  
Precipitation 0.00 in - - ()
Sea Level Pressure  
Sea Level Pressure 30.02 in    
Wind  
Wind Speed 5 mph (SE)    
Max Wind Speed 13 mph    
Max Gust Speed -    
Visibility 10 miles    
Events Rain , Thunderstorm    
Averages and records for this station are not official NWS values.
T = Trace of Precipitation, MM = Missing Value Source: NWS Daily Summary

Daily Weather History Graph

Daily Weather History Graph

Search for Another Location

Airport:

Trip Planner

Search our weather history database for the weather conditions in past years. The results will help you decide how hot, cold, wet, or windy it might be!

Date:

Astronomy

Aug. 02, 2013 Rise Set
Actual Time 6:53 AM EDT 8:18 PM EDT
Civil Twilight 6:28 AM EDT 8:43 PM EDT
Nautical Twilight 5:58 AM EDT 9:13 PM EDT
Astronomical Twilight 5:26 AM EDT 9:45 PM EDT
Moon 3:17 AM EDT (8/2) 5:11 PM EDT (8/2)
Length of Visible Light 14h 15m
Length of Day
13h 25m
Waning Crescent, 16% of the Moon is Illuminated
Aug 2
Waning Crescent
Aug 6
New
Aug 14
First Quarter
Aug 20
Full
Aug 28
Last Quarter

Hourly Weather History & Observations

Time (EDT) Temp. Heat Index Dew Point Humidity Pressure Visibility Wind Dir Wind Speed Gust Speed Precip Events Conditions
12:58 AM 76.5 °F - 75.0 °F 95% 30.00 in 10.0 mi SE 5.8 mph - N/A   Clear
1:58 AM 75.9 °F - 75.0 °F 97% 29.99 in 10.0 mi SE 4.6 mph - N/A   Clear
2:58 AM 75.7 °F - 75.2 °F 98% 29.98 in 10.0 mi East 4.6 mph - N/A   Clear
3:58 AM 75.4 °F - 75.4 °F 100% 29.98 in 10.0 mi East 4.6 mph - N/A   Clear
4:58 AM 75.4 °F - 75.4 °F 100% 29.97 in 10.0 mi ESE 3.5 mph - N/A   Clear
5:58 AM 74.7 °F - 74.7 °F 100% 29.98 in 10.0 mi ESE 3.5 mph - N/A   Clear
6:58 AM 75.0 °F - 75.0 °F 100% 29.99 in 10.0 mi SSE 5.8 mph - N/A   Clear
7:58 AM 79.0 °F - 77.2 °F 94% 30.00 in 10.0 mi South 5.8 mph - N/A   Clear
8:58 AM 82.4 °F 91.2 °F 77.5 °F 85% 30.01 in 10.0 mi SSE 6.9 mph - N/A   Clear
9:58 AM 85.3 °F 96.3 °F 77.4 °F 77% 30.03 in 10.0 mi SSE 5.8 mph - N/A   Clear
10:58 AM 88.5 °F 101.6 °F 77.7 °F 70% 30.05 in 10.0 mi South 3.5 mph - N/A   Clear
11:58 AM 90.3 °F 104.8 °F 77.9 °F 67% 30.06 in 10.0 mi Variable 3.5 mph - N/A   Clear
12:58 PM 90.9 °F 106.4 °F 78.4 °F 67% 30.05 in 10.0 mi Variable 5.8 mph - N/A   Clear
1:14 PM 91.4 °F 105.1 °F 77.0 °F 63% 30.03 in 10.0 mi Variable 4.6 mph - N/A Thunderstorm Thunderstorm
1:34 PM 93.2 °F 107.2 °F 77.0 °F 59% 30.04 in 10.0 mi West 8.1 mph - N/A Thunderstorm Clear
1:58 PM 88.3 °F 98.4 °F 75.4 °F 65% 30.04 in 10.0 mi SW 12.7 mph - N/A   Partly Cloudy
2:35 PM 87.8 °F 95.6 °F 73.4 °F 62% 30.03 in 10.0 mi SW 4.6 mph - N/A Thunderstorm Light Drizzle
2:52 PM 86.0 °F 96.9 °F 77.0 °F 74% 30.02 in 10.0 mi WSW 5.8 mph - N/A Thunderstorm Partly Cloudy
2:58 PM 85.5 °F 95.4 °F 76.5 °F 74% 30.02 in 10.0 mi SW 2.3 mph - 0.00 in Thunderstorm Partly Cloudy
3:07 PM 86.0 °F 99.3 °F 78.8 °F 79% 30.01 in 10.0 mi ENE 8.1 mph - N/A Thunderstorm Thunderstorm
3:17 PM 86.0 °F 99.3 °F 78.8 °F 79% 30.01 in 10.0 mi North 4.6 mph - N/A Rain , Thunderstorm Light Thunderstorms and Rain
3:22 PM 86.0 °F 99.3 °F 78.8 °F 79% 30.01 in 10.0 mi NNE 4.6 mph - N/A Thunderstorm Light Drizzle
3:23 PM 86.0 °F 99.3 °F 78.8 °F 79% 30.01 in 10.0 mi NNE 4.6 mph - N/A Thunderstorm Clear
3:30 PM 86.0 °F 99.3 °F 78.8 °F 79% 30.00 in 10.0 mi NE 3.5 mph - N/A   Light Drizzle
3:50 PM 86.0 °F 99.3 °F 78.8 °F 79% 30.00 in 10.0 mi NW 2.3 mph - N/A   Clear
3:58 PM 86.9 °F 101.5 °F 79.2 °F 78% 30.00 in 10.0 mi NW 2.3 mph - 0.00 in   Partly Cloudy
4:58 PM 88.9 °F 104.5 °F 79.3 °F 73% 29.99 in 10.0 mi West 6.9 mph - N/A   Clear
5:58 PM 90.3 °F 107.6 °F 79.7 °F 71% 29.99 in 10.0 mi SW 5.8 mph - N/A   Clear
6:58 PM 88.5 °F 99.9 °F 76.1 °F 67% 29.99 in 10.0 mi Variable 5.8 mph - N/A   Clear
7:58 PM 83.7 °F 93.1 °F 77.0 °F 80% 30.02 in 10.0 mi East 10.4 mph - N/A   Clear
8:58 PM 81.7 °F 89.0 °F 76.5 °F 84% 30.04 in 10.0 mi Variable 4.6 mph - N/A   Clear
9:15 PM 80.6 °F 87.1 °F 77.0 °F 89% 30.05 in 10.0 mi ESE 4.6 mph - N/A Thunderstorm Thunderstorm
9:30 PM 80.6 °F 86.2 °F 75.2 °F 84% 30.05 in 10.0 mi ENE 4.6 mph - N/A   Partly Cloudy
9:58 PM 80.2 °F 86.0 °F 76.3 °F 88% 30.05 in 10.0 mi ENE 3.5 mph - N/A   Partly Cloudy
10:58 PM 79.9 °F - 77.0 °F 91% 30.06 in 10.0 mi SE 4.6 mph - N/A   Partly Cloudy
11:58 PM 80.2 °F 86.6 °F 77.7 °F 92% 30.05 in 10.0 mi Calm Calm - N/A   Clear